Year,Month,Day,Hour,Minute,Value (Times are PST for windspeed in km/hr)
2006,02,04,00,00,3.80
2006,02,04,00,01,4.10
2006,02,04,00,02,6.40
2006,02,04,00,03,5.10
2006,02,04,00,04,3.70
2006,02,04,00,05,1.60
2006,02,04,00,06,6.00
2006,02,04,00,07,4.60
2006,02,04,00,08,4.40
2006,02,04,00,09,4.00
2006,02,04,00,10,3.20
2006,02,04,00,11,3.70
2006,02,04,00,12,3.40
2006,02,04,00,13,4.00
2006,02,04,00,14,6.20
2006,02,04,00,15,7.20
2006,02,04,00,16,10.80
2006,02,04,00,17,9.20
2006,02,04,00,18,3.60
2006,02,04,00,19,4.60
2006,02,04,00,20,2.60
2006,02,04,00,21,10.10
2006,02,04,00,22,5.30
2006,02,04,00,23,4.50
2006,02,04,00,24,4.70
2006,02,04,00,25,9.40
2006,02,04,00,26,10.40
2006,02,04,00,27,8.60
2006,02,04,00,28,9.00
2006,02,04,00,29,6.40
2006,02,04,00,30,16.10
2006,02,04,00,31,12.00
2006,02,04,00,32,8.60
2006,02,04,00,33,13.40
2006,02,04,00,34,12.80
2006,02,04,00,35,7.60
2006,02,04,00,36,6.40
2006,02,04,00,37,8.80
2006,02,04,00,38,10.30
2006,02,04,00,39,8.10
2006,02,04,00,40,8.70
2006,02,04,00,41,6.40
2006,02,04,00,42,5.20
2006,02,04,00,43,4.70
2006,02,04,00,44,5.90
2006,02,04,00,45,9.60
2006,02,04,00,46,5.40
2006,02,04,00,47,3.50
2006,02,04,00,48,7.30
2006,02,04,00,49,7.40
2006,02,04,00,50,5.80
2006,02,04,00,51,4.90
2006,02,04,00,52,9.50
2006,02,04,00,53,9.60
2006,02,04,00,54,7.50
2006,02,04,00,55,5.90
2006,02,04,00,56,4.10
2006,02,04,00,57,5.90
2006,02,04,00,58,1.90
2006,02,04,00,59,2.20
2006,02,04,01,00,1.00
2006,02,04,01,01,0.50
2006,02,04,01,02,0.40
2006,02,04,01,03,1.10
2006,02,04,01,04,4.10
2006,02,04,01,05,2.40
2006,02,04,01,06,4.10
2006,02,04,01,07,4.90
2006,02,04,01,08,8.60
2006,02,04,01,09,6.00
2006,02,04,01,10,6.60
2006,02,04,01,11,4.00
2006,02,04,01,12,2.60
2006,02,04,01,13,2.10
2006,02,04,01,14,3.20
2006,02,04,01,15,2.20
2006,02,04,01,16,0.00
2006,02,04,01,17,1.10
2006,02,04,01,18,3.30
2006,02,04,01,19,2.70
2006,02,04,01,20,0.30
2006,02,04,01,21,1.30
2006,02,04,01,22,1.70
2006,02,04,01,23,3.10
2006,02,04,01,24,3.10
2006,02,04,01,25,4.60
2006,02,04,01,26,1.20
2006,02,04,01,27,0.00
2006,02,04,01,28,0.00
2006,02,04,01,29,0.00
2006,02,04,01,30,1.80
2006,02,04,01,31,2.20
2006,02,04,01,32,1.30
2006,02,04,01,33,0.00
2006,02,04,01,34,0.00
2006,02,04,01,35,0.60
2006,02,04,01,36,1.40
2006,02,04,01,37,0.00
2006,02,04,01,38,2.00
2006,02,04,01,39,2.90
2006,02,04,01,40,2.10
2006,02,04,01,41,1.20
2006,02,04,01,42,4.30
2006,02,04,01,43,1.50
2006,02,04,01,44,6.40
2006,02,04,01,45,7.70
2006,02,04,01,46,6.00
2006,02,04,01,47,3.70
2006,02,04,01,48,3.90
2006,02,04,01,49,4.30
2006,02,04,01,50,4.60
2006,02,04,01,51,5.30
2006,02,04,01,52,4.60
2006,02,04,01,53,3.50
2006,02,04,01,54,0.30
2006,02,04,01,55,0.00
2006,02,04,01,56,0.60
2006,02,04,01,57,1.80
2006,02,04,01,58,0.60
2006,02,04,01,59,0.40
2006,02,04,02,00,4.30
2006,02,04,02,01,5.40
2006,02,04,02,02,2.00
2006,02,04,02,03,1.80
2006,02,04,02,04,2.50
2006,02,04,02,05,0.90
2006,02,04,02,06,3.40
2006,02,04,02,07,0.30
2006,02,04,02,08,3.20
2006,02,04,02,09,4.40
2006,02,04,02,10,6.20
2006,02,04,02,11,3.40
2006,02,04,02,12,2.40
2006,02,04,02,13,0.60
2006,02,04,02,14,0.00
2006,02,04,02,15,0.00
2006,02,04,02,16,0.00
2006,02,04,02,17,0.00
2006,02,04,02,18,0.00
2006,02,04,02,19,0.00
2006,02,04,02,20,0.00
2006,02,04,02,21,2.20
2006,02,04,02,22,1.30
2006,02,04,02,23,0.30
2006,02,04,02,24,0.00
2006,02,04,02,25,1.30
2006,02,04,02,26,2.50
2006,02,04,02,27,2.60
2006,02,04,02,28,3.10
2006,02,04,02,29,2.10
2006,02,04,02,30,1.60
2006,02,04,02,31,1.50
2006,02,04,02,32,2.50
2006,02,04,02,33,3.10
2006,02,04,02,34,3.30
2006,02,04,02,35,0.90
2006,02,04,02,36,0.60
2006,02,04,02,37,0.00
2006,02,04,02,38,0.00
2006,02,04,02,39,0.10
2006,02,04,02,40,1.30
2006,02,04,02,41,2.50
2006,02,04,02,42,2.30
2006,02,04,02,43,2.60
2006,02,04,02,44,2.10
2006,02,04,02,45,1.40
2006,02,04,02,46,0.50
2006,02,04,02,47,0.30
2006,02,04,02,48,0.00
2006,02,04,02,49,3.10
2006,02,04,02,50,3.90
2006,02,04,02,51,3.70
2006,02,04,02,52,2.30
2006,02,04,02,53,3.00
2006,02,04,02,54,2.50
2006,02,04,02,55,4.40
2006,02,04,02,56,9.10
2006,02,04,02,57,7.90
2006,02,04,02,58,2.80
2006,02,04,02,59,9.00
2006,02,04,03,00,6.80
2006,02,04,03,01,7.90
2006,02,04,03,02,3.90
2006,02,04,03,03,3.00
2006,02,04,03,04,10.10
2006,02,04,03,05,5.50
2006,02,04,03,06,9.10
2006,02,04,03,07,7.80
2006,02,04,03,08,4.70
2006,02,04,03,09,6.40
2006,02,04,03,10,4.50
2006,02,04,03,11,4.10
2006,02,04,03,12,2.80
2006,02,04,03,13,5.30
2006,02,04,03,14,3.50
2006,02,04,03,15,5.40
2006,02,04,03,16,6.40
2006,02,04,03,17,6.40
2006,02,04,03,18,4.40
2006,02,04,03,19,4.20
2006,02,04,03,20,6.70
2006,02,04,03,21,7.20
2006,02,04,03,22,8.70
2006,02,04,03,23,6.30
2006,02,04,03,24,8.20
2006,02,04,03,25,3.80
2006,02,04,03,26,6.50
2006,02,04,03,27,2.70
2006,02,04,03,28,6.90
2006,02,04,03,29,8.40
2006,02,04,03,30,6.20
2006,02,04,03,31,16.10
2006,02,04,03,32,15.90
2006,02,04,03,33,12.50
2006,02,04,03,34,14.70
2006,02,04,03,35,11.50
2006,02,04,03,36,9.30
2006,02,04,03,37,13.50
2006,02,04,03,38,12.40
2006,02,04,03,39,10.80
2006,02,04,03,40,16.10
2006,02,04,03,41,9.30
2006,02,04,03,42,14.10
2006,02,04,03,43,14.50
2006,02,04,03,44,10.40
2006,02,04,03,45,10.10
2006,02,04,03,46,10.80
2006,02,04,03,47,13.80
2006,02,04,03,48,7.00
2006,02,04,03,49,10.10
2006,02,04,03,50,12.00
2006,02,04,03,51,16.10
2006,02,04,03,52,16.10
2006,02,04,03,53,16.10
2006,02,04,03,54,16.10
2006,02,04,03,55,11.50
2006,02,04,03,56,8.20
2006,02,04,03,57,9.00
2006,02,04,03,58,9.90
2006,02,04,03,59,7.50
2006,02,04,04,00,13.90
2006,02,04,04,01,14.60
2006,02,04,04,02,16.40
2006,02,04,04,03,17.60
2006,02,04,04,04,16.50
2006,02,04,04,05,16.80
2006,02,04,04,06,19.60
2006,02,04,04,07,14.10
2006,02,04,04,08,18.80
2006,02,04,04,09,16.20
2006,02,04,04,10,12.90
2006,02,04,04,11,11.70
2006,02,04,04,12,12.70
2006,02,04,04,13,14.40
2006,02,04,04,14,11.40
2006,02,04,04,15,13.60
2006,02,04,04,16,14.80
2006,02,04,04,17,10.00
2006,02,04,04,18,9.30
2006,02,04,04,19,7.30
2006,02,04,04,20,12.50
2006,02,04,04,21,8.80
2006,02,04,04,22,4.70
2006,02,04,04,23,6.90
2006,02,04,04,24,7.10
2006,02,04,04,25,4.70
2006,02,04,04,26,10.00
2006,02,04,04,27,11.90
2006,02,04,04,28,9.70
2006,02,04,04,29,7.20
2006,02,04,04,30,12.00
2006,02,04,04,31,15.20
2006,02,04,04,32,11.10
2006,02,04,04,33,19.30
2006,02,04,04,34,13.10
2006,02,04,04,35,15.80
2006,02,04,04,36,15.00
2006,02,04,04,37,9.20
2006,02,04,04,38,10.00
2006,02,04,04,39,17.20
2006,02,04,04,40,13.80
2006,02,04,04,41,9.50
2006,02,04,04,42,14.50
2006,02,04,04,43,18.90
2006,02,04,04,44,11.80
2006,02,04,04,45,14.40
2006,02,04,04,46,11.30
2006,02,04,04,47,13.40
2006,02,04,04,48,12.50
2006,02,04,04,49,10.10
2006,02,04,04,50,11.20
2006,02,04,04,51,12.90
2006,02,04,04,52,15.80
2006,02,04,04,53,9.30
2006,02,04,04,54,13.50
2006,02,04,04,55,11.40
2006,02,04,04,56,14.80
2006,02,04,04,57,16.60
2006,02,04,04,58,15.40
2006,02,04,04,59,13.00
2006,02,04,05,00,18.20
2006,02,04,05,01,17.40
2006,02,04,05,02,11.10
2006,02,04,05,03,15.00
2006,02,04,05,04,8.40
2006,02,04,05,05,11.30
2006,02,04,05,06,19.20
2006,02,04,05,07,16.10
2006,02,04,05,08,15.90
2006,02,04,05,09,22.00
2006,02,04,05,10,17.40
2006,02,04,05,11,6.70
2006,02,04,05,12,12.90
2006,02,04,05,13,16.80
2006,02,04,05,14,13.40
2006,02,04,05,15,14.90
2006,02,04,05,16,19.80
2006,02,04,05,17,18.00
2006,02,04,05,18,20.10
2006,02,04,05,19,20.90
2006,02,04,05,20,20.90
2006,02,04,05,21,10.60
2006,02,04,05,22,12.40
2006,02,04,05,23,16.20
2006,02,04,05,24,13.30
2006,02,04,05,25,11.70
2006,02,04,05,26,20.50
2006,02,04,05,27,14.60
2006,02,04,05,28,18.20
2006,02,04,05,29,17.10
2006,02,04,05,30,16.40
2006,02,04,05,31,13.80
2006,02,04,05,32,16.20
2006,02,04,05,33,13.70
2006,02,04,05,34,16.70
2006,02,04,05,35,14.30
2006,02,04,05,36,17.20
2006,02,04,05,37,16.10
2006,02,04,05,38,16.90
2006,02,04,05,39,16.90
2006,02,04,05,40,20.00
2006,02,04,05,41,16.90
2006,02,04,05,42,15.90
2006,02,04,05,43,9.80
2006,02,04,05,44,9.60
2006,02,04,05,45,8.90
2006,02,04,05,46,12.90
2006,02,04,05,47,12.60
2006,02,04,05,48,14.70
2006,02,04,05,49,12.70
2006,02,04,05,50,13.20
2006,02,04,05,51,11.10
2006,02,04,05,52,18.70
2006,02,04,05,53,16.30
2006,02,04,05,54,13.50
2006,02,04,05,55,11.80
2006,02,04,05,56,12.20
2006,02,04,05,57,13.90
2006,02,04,05,58,16.70
2006,02,04,05,59,12.80
2006,02,04,06,00,14.00
2006,02,04,06,01,14.30
2006,02,04,06,02,14.70
2006,02,04,06,03,11.30
2006,02,04,06,04,6.80
2006,02,04,06,05,8.00
2006,02,04,06,06,10.70
2006,02,04,06,07,9.50
2006,02,04,06,08,12.00
2006,02,04,06,09,11.10
2006,02,04,06,10,15.20
2006,02,04,06,11,19.40
2006,02,04,06,12,10.50
2006,02,04,06,13,13.30
2006,02,04,06,14,10.00
2006,02,04,06,15,8.80
2006,02,04,06,16,8.50
2006,02,04,06,17,5.60
2006,02,04,06,18,11.30
2006,02,04,06,19,12.50
2006,02,04,06,20,10.80
2006,02,04,06,21,9.50
2006,02,04,06,22,11.30
2006,02,04,06,23,14.80
2006,02,04,06,24,11.80
2006,02,04,06,25,14.10
2006,02,04,06,26,19.40
2006,02,04,06,27,11.20
2006,02,04,06,28,11.00
2006,02,04,06,29,14.90
2006,02,04,06,30,14.90
2006,02,04,06,31,11.90
2006,02,04,06,32,17.50
2006,02,04,06,33,7.90
2006,02,04,06,34,6.10
2006,02,04,06,35,7.90
2006,02,04,06,36,6.40
2006,02,04,06,37,6.40
2006,02,04,06,38,6.90
2006,02,04,06,39,10.50
2006,02,04,06,40,8.60
2006,02,04,06,41,12.10
2006,02,04,06,42,13.10
2006,02,04,06,43,12.50
2006,02,04,06,44,14.80
2006,02,04,06,45,13.40
2006,02,04,06,46,12.40
2006,02,04,06,47,13.60
2006,02,04,06,48,12.10
2006,02,04,06,49,10.70
2006,02,04,06,50,10.20
2006,02,04,06,51,12.70
2006,02,04,06,52,10.90
2006,02,04,06,53,7.10
2006,02,04,06,54,10.50
2006,02,04,06,55,9.70
2006,02,04,06,56,11.80
2006,02,04,06,57,17.80
2006,02,04,06,58,11.90
2006,02,04,06,59,6.80
2006,02,04,07,00,15.00
2006,02,04,07,01,12.40
2006,02,04,07,02,12.20
2006,02,04,07,03,6.30
2006,02,04,07,04,9.30
2006,02,04,07,05,13.60
2006,02,04,07,06,21.80
2006,02,04,07,07,16.40
2006,02,04,07,08,15.10
2006,02,04,07,09,16.90
2006,02,04,07,10,13.40
2006,02,04,07,11,18.20
2006,02,04,07,12,13.00
2006,02,04,07,13,22.40
2006,02,04,07,14,25.70
2006,02,04,07,15,32.20
2006,02,04,07,16,32.20
2006,02,04,07,17,32.20
2006,02,04,07,18,30.30
2006,02,04,07,19,13.00
2006,02,04,07,20,21.20
2006,02,04,07,21,15.60
2006,02,04,07,22,14.40
2006,02,04,07,23,16.90
2006,02,04,07,24,15.50
2006,02,04,07,25,17.20
2006,02,04,07,26,17.70
2006,02,04,07,27,14.00
2006,02,04,07,28,12.10
2006,02,04,07,29,12.10
2006,02,04,07,30,20.40
2006,02,04,07,31,17.40
2006,02,04,07,32,14.30
2006,02,04,07,33,14.20
2006,02,04,07,34,17.30
2006,02,04,07,35,18.00
2006,02,04,07,36,14.80
2006,02,04,07,37,21.70
2006,02,04,07,38,15.40
2006,02,04,07,39,13.80
2006,02,04,07,40,15.00
2006,02,04,07,41,15.00
2006,02,04,07,42,12.40
2006,02,04,07,43,17.80
2006,02,04,07,44,9.00
2006,02,04,07,45,15.90
2006,02,04,07,46,14.20
2006,02,04,07,47,15.00
2006,02,04,07,48,11.60
2006,02,04,07,49,15.40
2006,02,04,07,50,16.90
2006,02,04,07,51,22.70
2006,02,04,07,52,16.90
2006,02,04,07,53,18.20
2006,02,04,07,54,15.10
2006,02,04,07,55,15.00
2006,02,04,07,56,20.00
2006,02,04,07,57,20.60
2006,02,04,07,58,20.70
2006,02,04,07,59,16.10
2006,02,04,08,00,14.00
2006,02,04,08,01,20.80
2006,02,04,08,02,16.40
2006,02,04,08,03,10.50
2006,02,04,08,04,9.30
2006,02,04,08,05,9.60
2006,02,04,08,06,9.60
2006,02,04,08,07,13.20
2006,02,04,08,08,13.40
2006,02,04,08,09,18.90
2006,02,04,08,10,20.30
2006,02,04,08,11,15.80
2006,02,04,08,12,14.50
2006,02,04,08,13,14.40
2006,02,04,08,14,13.00
2006,02,04,08,15,9.20
2006,02,04,08,16,17.10
2006,02,04,08,17,18.00
2006,02,04,08,18,10.60
2006,02,04,08,19,8.00
2006,02,04,08,20,7.40
2006,02,04,08,21,4.60
2006,02,04,08,22,9.00
2006,02,04,08,23,9.30
2006,02,04,08,24,10.50
2006,02,04,08,25,8.70
2006,02,04,08,26,8.20
2006,02,04,08,27,8.60
2006,02,04,08,28,8.60
2006,02,04,08,29,7.30
2006,02,04,08,30,6.40
2006,02,04,08,31,8.60
2006,02,04,08,32,10.90
2006,02,04,08,33,11.30
2006,02,04,08,34,11.10
2006,02,04,08,35,8.50
2006,02,04,08,36,3.60
2006,02,04,08,37,2.20
2006,02,04,08,38,4.50
2006,02,04,08,39,6.70
2006,02,04,08,40,4.60
2006,02,04,08,41,9.30
2006,02,04,08,42,6.10
2006,02,04,08,43,4.90
2006,02,04,08,44,8.00
2006,02,04,08,45,5.80
2006,02,04,08,46,6.00
2006,02,04,08,47,6.40
2006,02,04,08,48,4.40
2006,02,04,08,49,6.40
2006,02,04,08,50,11.40
2006,02,04,08,51,5.90
2006,02,04,08,52,4.60
2006,02,04,08,53,7.50
2006,02,04,08,54,8.20
2006,02,04,08,55,9.30
2006,02,04,08,56,9.70
2006,02,04,08,57,6.80
2006,02,04,08,58,17.20
2006,02,04,08,59,11.50
2006,02,04,09,00,7.50
2006,02,04,09,01,9.10
2006,02,04,09,02,7.30
2006,02,04,09,03,20.50
2006,02,04,09,04,15.80
2006,02,04,09,05,18.20
2006,02,04,09,06,16.40
2006,02,04,09,07,14.70
2006,02,04,09,08,10.20
2006,02,04,09,09,18.00
2006,02,04,09,10,15.60
2006,02,04,09,11,21.60
2006,02,04,09,12,18.40
2006,02,04,09,13,20.50
2006,02,04,09,14,16.30
2006,02,04,09,15,21.20
2006,02,04,09,16,14.70
2006,02,04,09,17,13.10
2006,02,04,09,18,16.30
2006,02,04,09,19,21.10
2006,02,04,09,20,22.20
2006,02,04,09,21,13.10
2006,02,04,09,22,16.90
2006,02,04,09,23,20.20
2006,02,04,09,24,24.40
2006,02,04,09,25,18.50
2006,02,04,09,26,24.70
2006,02,04,09,27,26.40
2006,02,04,09,28,13.20
2006,02,04,09,29,17.70
2006,02,04,09,30,12.50
2006,02,04,09,31,16.30
2006,02,04,09,32,18.70
2006,02,04,09,33,13.80
2006,02,04,09,34,17.10
2006,02,04,09,35,21.20
2006,02,04,09,36,16.60
2006,02,04,09,37,19.40
2006,02,04,09,38,15.30
2006,02,04,09,39,17.10
2006,02,04,09,40,27.90
2006,02,04,09,41,16.00
2006,02,04,09,42,29.80
2006,02,04,09,43,21.80
2006,02,04,09,44,16.20
2006,02,04,09,45,25.70
2006,02,04,09,46,21.20
2006,02,04,09,47,29.00
2006,02,04,09,48,24.90
2006,02,04,09,49,35.40
2006,02,04,09,50,35.40
2006,02,04,09,51,17.10
2006,02,04,09,52,15.30
2006,02,04,09,53,19.90
2006,02,04,09,54,24.30
2006,02,04,09,55,26.40
2006,02,04,09,56,27.40
2006,02,04,09,57,20.20
2006,02,04,09,58,16.10
2006,02,04,09,59,21.00
2006,02,04,10,00,35.30
2006,02,04,10,01,20.40
2006,02,04,10,02,19.70
2006,02,04,10,03,26.10
2006,02,04,10,04,22.50
2006,02,04,10,05,30.50
2006,02,04,10,06,25.10
2006,02,04,10,07,28.50
2006,02,04,10,08,23.20
2006,02,04,10,09,28.50
2006,02,04,10,10,21.00
2006,02,04,10,11,35.00
2006,02,04,10,12,32.30
2006,02,04,10,13,28.10
2006,02,04,10,14,32.30
2006,02,04,10,15,30.60
2006,02,04,10,16,21.60
2006,02,04,10,17,21.50
2006,02,04,10,18,20.90
2006,02,04,10,19,32.50
2006,02,04,10,20,34.60
2006,02,04,10,21,26.50
2006,02,04,10,22,21.60
2006,02,04,10,23,31.00
2006,02,04,10,24,34.10
2006,02,04,10,25,40.20
2006,02,04,10,26,26.30
2006,02,04,10,27,15.70
2006,02,04,10,28,26.90
2006,02,04,10,29,30.40
2006,02,04,10,30,29.10
2006,02,04,10,31,29.90
2006,02,04,10,32,19.90
2006,02,04,10,33,29.20
2006,02,04,10,34,31.40
2006,02,04,10,35,25.30
2006,02,04,10,36,22.80
2006,02,04,10,37,26.20
2006,02,04,10,38,25.80
2006,02,04,10,39,25.30
2006,02,04,10,40,23.80
2006,02,04,10,41,22.50
2006,02,04,10,42,26.60
2006,02,04,10,43,33.10
2006,02,04,10,44,30.30
2006,02,04,10,45,29.00
2006,02,04,10,46,34.70
2006,02,04,10,47,27.10
2006,02,04,10,48,28.50
2006,02,04,10,49,23.70
2006,02,04,10,50,30.20
2006,02,04,10,51,31.00
2006,02,04,10,52,27.90
2006,02,04,10,53,24.90
2006,02,04,10,54,26.40
2006,02,04,10,55,32.60
2006,02,04,10,56,29.70
2006,02,04,10,57,25.70
2006,02,04,10,58,20.90
2006,02,04,10,59,14.40
2006,02,04,11,00,15.20
2006,02,04,11,01,17.10
2006,02,04,11,02,22.70
2006,02,04,11,03,31.20
2006,02,04,11,04,19.70
2006,02,04,11,05,21.10
2006,02,04,11,06,20.40
2006,02,04,11,07,14.50
2006,02,04,11,08,14.50
2006,02,04,11,09,31.90
2006,02,04,11,10,24.60
2006,02,04,11,11,30.80
2006,02,04,11,12,27.70
2006,02,04,11,13,32.70
2006,02,04,11,14,35.40
2006,02,04,11,15,36.90
2006,02,04,11,16,38.60
2006,02,04,11,17,34.40
2006,02,04,11,18,20.80
2006,02,04,11,19,21.40
2006,02,04,11,20,27.30
2006,02,04,11,21,25.30
2006,02,04,11,22,31.60
2006,02,04,11,23,23.10
2006,02,04,11,24,23.70
2006,02,04,11,25,20.40
2006,02,04,11,26,31.00
2006,02,04,11,27,22.90
2006,02,04,11,28,33.60
2006,02,04,11,29,24.60
2006,02,04,11,30,37.80
2006,02,04,11,31,36.80
2006,02,04,11,32,40.60
2006,02,04,11,33,36.10
2006,02,04,11,34,26.10
2006,02,04,11,35,27.30
2006,02,04,11,36,23.30
2006,02,04,11,37,20.20
2006,02,04,11,38,33.00
2006,02,04,11,39,32.00
2006,02,04,11,40,27.90
2006,02,04,11,41,24.20
2006,02,04,11,42,33.30
2006,02,04,11,43,26.20
2006,02,04,11,44,20.30
2006,02,04,11,45,24.40
2006,02,04,11,46,25.70
2006,02,04,11,47,21.20
2006,02,04,11,48,33.60
2006,02,04,11,49,30.00
2006,02,04,11,50,29.10
2006,02,04,11,51,22.90
2006,02,04,11,52,28.20
2006,02,04,11,53,22.50
2006,02,04,11,54,25.40
2006,02,04,11,55,24.30
2006,02,04,11,56,32.30
2006,02,04,11,57,30.70
2006,02,04,11,58,22.00
2006,02,04,11,59,25.60
2006,02,04,12,00,36.00
2006,02,04,12,01,20.30
2006,02,04,12,02,25.80
2006,02,04,12,03,28.70
2006,02,04,12,04,22.90
2006,02,04,12,05,33.30
2006,02,04,12,06,35.50
2006,02,04,12,07,31.90
2006,02,04,12,08,31.20
2006,02,04,12,09,32.20
2006,02,04,12,10,34.60
2006,02,04,12,11,26.20
2006,02,04,12,12,20.00
2006,02,04,14,17,28.40
2006,02,04,14,18,23.60
2006,02,04,14,19,27.40
2006,02,04,14,20,37.90
2006,02,04,14,21,33.10
2006,02,04,14,22,26.30
2006,02,04,14,23,31.80
2006,02,04,14,24,33.20
2006,02,04,14,25,33.00
2006,02,04,14,26,30.60
2006,02,04,14,27,23.00
2006,02,04,14,28,33.60
2006,02,04,14,29,40.40
2006,02,04,14,30,48.30
2006,02,04,14,31,45.80
2006,02,04,14,32,31.50
2006,02,04,14,33,28.20
2006,02,04,14,34,24.70
2006,02,04,14,35,29.90
2006,02,04,14,36,37.80
2006,02,04,14,37,28.00
2006,02,04,14,38,34.70
2006,02,04,14,39,33.40
2006,02,04,14,40,37.10
2006,02,04,14,41,33.60
2006,02,04,14,42,29.00
2006,02,04,14,43,31.40
2006,02,04,14,44,38.10
2006,02,04,14,45,28.90
2006,02,04,14,46,28.70
2006,02,04,14,47,37.80
2006,02,04,14,48,29.20
2006,02,04,14,49,26.10
2006,02,04,14,50,33.60
2006,02,04,14,51,33.20
2006,02,04,14,52,31.60
2006,02,04,14,53,33.60
2006,02,04,14,54,29.90
2006,02,04,14,55,25.50
2006,02,04,14,56,43.30
2006,02,04,14,57,29.70
2006,02,04,14,58,35.90
2006,02,04,14,59,42.00
2006,02,04,15,00,30.40
2006,02,04,15,01,27.00
2006,02,04,15,02,37.70
2006,02,04,15,03,34.00
2006,02,04,15,04,29.60
2006,02,04,15,05,33.40
2006,02,04,15,06,31.40
2006,02,04,15,07,35.00
2006,02,04,15,08,40.60
2006,02,04,15,09,26.40
2006,02,04,15,10,29.80
2006,02,04,15,11,34.40
2006,02,04,15,12,34.30
2006,02,04,15,13,25.90
2006,02,04,15,14,22.40
2006,02,04,15,15,29.90
2006,02,04,15,16,40.60
2006,02,04,15,17,28.60
2006,02,04,15,18,28.70
2006,02,04,15,19,35.10
2006,02,04,15,20,29.00
2006,02,04,15,21,30.00
2006,02,04,15,22,32.80
2006,02,04,15,23,28.50
2006,02,04,15,24,29.00
2006,02,04,15,25,33.80
2006,02,04,15,26,40.70
2006,02,04,15,27,29.80
2006,02,04,15,28,23.00
2006,02,04,15,29,25.70
2006,02,04,15,30,27.80
2006,02,04,15,31,23.90
2006,02,04,15,32,14.50
2006,02,04,15,33,20.60
2006,02,04,15,34,39.80
2006,02,04,15,35,35.50
2006,02,04,15,36,38.60
2006,02,04,15,37,35.00
2006,02,04,15,38,32.80
2006,02,04,15,39,34.60
2006,02,04,15,40,31.00
2006,02,04,15,41,28.70
2006,02,04,15,42,34.30
2006,02,04,15,43,32.60
2006,02,04,15,44,23.00
2006,02,04,15,45,33.70
2006,02,04,15,46,28.90
2006,02,04,15,47,24.00
2006,02,04,15,48,22.10
2006,02,04,15,49,33.20
2006,02,04,15,50,33.20
2006,02,04,15,51,29.40
2006,02,04,15,52,32.30
2006,02,04,15,53,41.80
2006,02,04,15,54,34.40
2006,02,04,15,55,34.40
2006,02,04,15,56,33.00
2006,02,04,15,57,33.80
2006,02,04,15,58,33.80
2006,02,04,15,59,36.90
2006,02,04,16,00,27.40
2006,02,04,16,01,29.60
2006,02,04,16,02,39.90
2006,02,04,16,03,32.20
2006,02,04,16,04,25.30
2006,02,04,16,05,29.90
2006,02,04,16,06,20.20
2006,02,04,16,07,26.70
2006,02,04,16,08,29.20
2006,02,04,16,09,25.60
2006,02,04,16,10,37.70
2006,02,04,16,11,36.10
2006,02,04,16,12,33.40
2006,02,04,16,13,35.60
2006,02,04,16,14,33.50
2006,02,04,16,15,33.60
2006,02,04,16,16,26.30
2006,02,04,16,17,33.00
2006,02,04,16,18,24.30
2006,02,04,16,19,32.60
2006,02,04,16,20,32.20
2006,02,04,16,21,34.90
2006,02,04,16,22,38.20
2006,02,04,16,23,27.30
2006,02,04,16,24,36.80
2006,02,04,16,25,27.40
2006,02,04,16,26,24.60
2006,02,04,16,27,36.50
2006,02,04,16,28,37.40
2006,02,04,16,29,40.10
2006,02,04,16,30,34.60
2006,02,04,16,31,29.70
2006,02,04,16,32,36.30
2006,02,04,16,33,32.80
2006,02,04,16,34,20.00
2006,02,04,16,35,27.40
2006,02,04,16,36,30.70
2006,02,04,16,37,31.80
2006,02,04,16,38,23.20
2006,02,04,16,39,27.70
2006,02,04,16,40,28.10
2006,02,04,16,41,35.20
2006,02,04,16,42,23.40
2006,02,04,16,43,33.10
2006,02,04,16,44,31.60
2006,02,04,16,45,26.20
2006,02,04,16,46,24.10
2006,02,04,16,47,30.10
2006,02,04,16,48,34.10
2006,02,04,16,49,29.60
2006,02,04,16,50,33.10
2006,02,04,16,51,36.10
2006,02,04,16,52,31.00
2006,02,04,16,53,31.70
2006,02,04,16,54,30.30
2006,02,04,16,55,29.60
2006,02,04,16,56,31.50
2006,02,04,16,57,25.00
2006,02,04,16,58,28.10
2006,02,04,16,59,34.70
2006,02,04,17,00,34.00
2006,02,04,17,01,29.50
2006,02,04,17,02,30.20
2006,02,04,17,03,30.50
2006,02,04,17,04,27.00
2006,02,04,17,05,29.00
2006,02,04,17,06,29.00
2006,02,04,17,07,29.00
2006,02,04,17,08,29.60
2006,02,04,17,09,25.30
2006,02,04,17,10,32.80
2006,02,04,17,11,30.70
2006,02,04,17,12,27.70
2006,02,04,17,13,33.30
2006,02,04,17,14,35.80
2006,02,04,17,15,31.50
2006,02,04,17,16,37.00
2006,02,04,17,17,26.10
2006,02,04,17,18,28.70
2006,02,04,17,19,28.70
2006,02,04,17,20,27.40
2006,02,04,17,21,28.40
2006,02,04,17,22,22.40
2006,02,04,17,23,25.90
2006,02,04,17,24,29.70
2006,02,04,17,25,33.80
2006,02,04,17,26,32.90
2006,02,04,17,27,30.10
2006,02,04,17,28,30.10
2006,02,04,17,29,26.50
2006,02,04,17,30,23.70
2006,02,04,17,31,28.40
2006,02,04,17,32,30.70
2006,02,04,17,33,28.20
2006,02,04,17,34,22.20
2006,02,04,17,35,23.70
2006,02,04,17,36,21.30
2006,02,04,17,37,23.30
2006,02,04,17,38,23.80
2006,02,04,17,39,15.20
2006,02,04,17,40,21.90
2006,02,04,17,41,22.50
2006,02,04,17,42,28.20
2006,02,04,17,43,26.50
2006,02,04,17,44,26.20
2006,02,04,17,45,33.20
2006,02,04,17,46,26.50
2006,02,04,17,47,22.20
2006,02,04,17,48,25.00
2006,02,04,17,49,21.10
2006,02,04,17,50,19.80
2006,02,04,17,51,24.70
2006,02,04,17,52,21.60
2006,02,04,17,53,29.10
2006,02,04,17,54,24.90
2006,02,04,17,55,32.20
2006,02,04,17,56,26.40
2006,02,04,17,57,22.00
2006,02,04,17,58,29.40
2006,02,04,17,59,21.30
2006,02,04,18,00,27.90
2006,02,04,18,01,17.30
2006,02,04,18,02,17.90
2006,02,04,18,03,21.30
2006,02,04,18,04,24.80
2006,02,04,18,05,19.80
2006,02,04,18,06,16.70
2006,02,04,18,07,23.00
2006,02,04,18,08,30.30
2006,02,04,18,09,24.80
2006,02,04,18,10,28.20
2006,02,04,18,11,23.90
2006,02,04,18,12,17.40
2006,02,04,18,13,26.70
2006,02,04,18,14,22.10
2006,02,04,18,15,28.10
2006,02,04,18,16,25.10
2006,02,04,18,17,26.40
2006,02,04,18,18,25.50
2006,02,04,18,19,22.20
2006,02,04,18,20,24.80
2006,02,04,18,21,25.00
2006,02,04,18,22,18.60
2006,02,04,18,23,19.70
2006,02,04,18,24,20.20
2006,02,04,18,25,19.40
2006,02,04,18,26,23.90
2006,02,04,18,27,19.00
2006,02,04,18,28,21.00
2006,02,04,18,29,25.50
2006,02,04,18,30,26.00
2006,02,04,18,31,22.50
2006,02,04,18,32,29.50
2006,02,04,18,33,21.50
2006,02,04,18,34,25.20
2006,02,04,18,35,21.30
2006,02,04,18,36,22.10
2006,02,04,18,37,18.80
2006,02,04,18,38,21.00
2006,02,04,18,39,16.90
2006,02,04,18,40,19.30
2006,02,04,18,41,18.30
2006,02,04,18,42,21.70
2006,02,04,18,43,22.70
2006,02,04,18,44,18.80
2006,02,04,18,45,22.00
2006,02,04,18,46,21.30
2006,02,04,18,47,17.80
2006,02,04,18,48,12.30
2006,02,04,18,49,21.90
2006,02,04,18,50,18.70
2006,02,04,18,51,19.60
2006,02,04,18,52,23.60
2006,02,04,18,53,17.90
2006,02,04,18,54,17.30
2006,02,04,18,55,23.50
2006,02,04,18,56,23.20
2006,02,04,18,57,25.70
2006,02,04,18,58,23.10
2006,02,04,18,59,20.10
2006,02,04,19,00,22.10
2006,02,04,19,01,20.80
2006,02,04,19,02,14.10
2006,02,04,19,03,27.20
2006,02,04,19,04,18.60
2006,02,04,19,05,23.80
2006,02,04,19,06,19.30
2006,02,04,19,07,20.40
2006,02,04,19,08,17.60
2006,02,04,19,09,10.90
2006,02,04,19,10,22.20
2006,02,04,19,11,18.00
2006,02,04,19,12,17.00
2006,02,04,19,13,19.50
2006,02,04,19,14,21.20
2006,02,04,19,15,20.90
2006,02,04,19,16,20.90
2006,02,04,19,17,23.50
2006,02,04,19,18,20.20
2006,02,04,19,19,19.30
2006,02,04,19,20,17.40
2006,02,04,19,21,25.30
2006,02,04,19,22,27.00
2006,02,04,19,23,20.00
2006,02,04,19,24,16.90
2006,02,04,19,25,19.60
2006,02,04,19,26,27.70
2006,02,04,19,27,28.80
2006,02,04,19,28,24.60
2006,02,04,19,29,20.10
2006,02,04,19,30,21.40
2006,02,04,19,31,16.20
2006,02,04,19,32,26.20
2006,02,04,19,33,18.00
2006,02,04,19,34,18.90
2006,02,04,19,35,17.50